Wind_Speed
19 19 20 20 21 22 22 23 24 25 26 27 28 29 30 30 31 32 33 34 34 34 35 35 35 34 33 32 31 30 29 29 28 27 27 27 27 27 28 29 30 30 31 31 32 32 33 33 34 35 35 36 37 38 39 40 42 43 44 45 46 47 48 49 50 51 52 52 53 54 55 56 57 57 58 58 59 60 60 61 61 62 62 62 63 63
17 18 18 19 20 21 22 23 24 25 26 27 27 28 28 28 29 29 29 29 29 29 29 28 27 27 27 26 25 25 26 26 26 26 27 27 28 28 29 30 31 32 32 33 33 34 34 35 35 36 37 38 39 41 42 43 44 45 46 47 48 49 50 51 52 54 54 55 56 57 58 59 60 61 61 62 63 63 64 65 65 66 66 67 67 68
16 17 18 19 20 21 22 22 23 23 23 23 24 24 24 24 24 24 24 23 23 23 23 23 24 24 25 25 25 25 26 27 27 28 28 29 30 30 31 31 32 33 33 34 35 35 35 36 37 37 38 39 41 43 44 44 45 47 48 49 50 51 52 53 54 56 57 58 58 59 61 61 62 63 64 65 66 67 67 68 68 69 69 70 70 71
17 17 18 18 19 19 19 19 20 20 20 20 20 20 20 19 20 20 20 21 21 22 23 24 24 26 26 27 27 27 27 29 29 29 30 31 31 31 32 32 33 34 34 35 36 36 36 37 38 38 39 41 42 44 45 46 47 48 49 50 51 53 54 55 56 57 58 59 60 61 62 63 64 65 67 67 68 70 70 70 71 71 72 73 73 74
16 16 17 16 16 17 17 17 18 18 18 18 18 18 18 19 20 21 22 22 23 24 24 25 26 27 28 29 28 27 28 29 29 29 31 32 32 32 33 34 34 35 35 36 37 38 37 38 38 39 41 42 44 46 47 47 49 50 51 52 53 55 56 57 59 60 60 61 63 64 65 66 67 68 69 70 71 72 73 73 74 74 75 75 76 77
15 15 15 16 16 16 17 17 17 17 18 18 19 20 20 21 21 22 23 24 24 25 25 26 27 26 28 31 30 28 28 29 29 30 32 33 33 33 34 35 36 36 36 37 37 38 38 39 40 41 43 45 46 48 49 50 51 53 54 55 57 58 59 60 62 63 63 64 65 66 67 68 69 69 70 71 73 74 75 75 75 76 77 77 78 79
14 15 15 16 16 17 17 17 17 18 19 19 20 21 22 22 22 23 25 25 25 26 26 28 29 27 26 30 32 29 28 29 30 31 33 34 33 34 35 36 37 37 37 37 38 39 40 41 42 44 47 48 50 51 52 53 55 56 57 58 59 60 61 63 64 65 65 66 67 68 68 69 70 71 71 72 73 74 75 75 76 77 77 78 79 80
15 15 16 16 17 17 17 18 19 20 21 21 22 23 23 23 24 24 26 26 26 27 27 28 30 29 25 25 31 31 28 29 30 33 35 35 35 35 36 37 37 38 38 38 39 40 41 43 45 48 50 51 53 54 56 57 57 58 59 60 61 61 62 63 64 65 66 67 68 69 70 70 71 72 72 73 74 75 75 76 76 77 78 79 80 81
16 16 16 17 17 18 18 19 20 21 21 22 23 23 24 24 25 26 26 27 27 27 27 28 30 31 26 23 29 31 29 30 31 33 36 37 37 38 38 38 38 38 38 39 40 41 43 46 49 51 52 54 55 56 57 58 59 60 61 61 61 62 63 65 66 66 68 69 70 70 71 71 71 72 73 74 74 75 76 77 77 79 80 81 81 82
17 17 18 18 18 19 19 20 21 21 22 22 23 23 24 25 25 26 26 27 28 27 27 29 30 31 28 23 28 31 31 32 33 34 37 39 40 40 40 39 39 38 39 40 42 44 47 50 52 53 54 55 56 57 58 59 60 61 62 63 63 64 66 67 68 69 70 71 71 71 72 72 72 73 74 74 74 75 76 78 78 79 80 81 82 83
18 18 19 19 19 20 20 21 21 22 22 23 23 24 24 25 26 26 27 28 28 27 28 29 30 32 31 28 31 33 33 35 35 36 38 40 41 42 41 41 40 39 39 42 45 48 50 52 53 54 55 56 57 59 60 61 62 63 63 64 65 66 68 69 70 71 71 72 73 73 73 74 74 74 75 75 75 75 77 78 78 80 81 83 84 86
18 19 19 19 20 21 21 21 22 22 23 23 24 25 25 26 27 27 28 29 29 29 29 30 31 33 32 31 34 36 37 38 38 38 40 41 41 42 42 42 41 40 40 44 47 49 51 52 53 55 55 57 58 60 61 62 63 64 65 66 66 67 69 70 71 71 72 72 73 74 74 75 75 75 76 76 76 76 78 79 80 82 84 86 89 91
18 19 19 20 20 21 21 21 22 22 23 24 25 26 26 27 29 29 29 30 30 30 30 30 31 33 32 33 36 38 39 39 39 39 40 40 42 43 44 43 42 43 44 47 49 50 52 53 54 55 57 58 59 61 62 63 64 65 65 67 67 67 69 71 71 72 72 73 73 74 75 75 76 76 77 77 78 79 81 83 85 87 90 92 94 96
19 19 19 20 20 21 21 21 22 23 24 25 26 27 28 29 31 32 32 32 31 31 31 31 33 34 33 35 38 39 38 38 39 40 40 41 44 44 44 44 45 47 48 50 51 53 54 55 56 57 58 59 60 62 63 64 65 66 66 67 68 68 69 71 72 72 72 73 74 74 75 76 76 77 78 80 81 83 86 88 90 92 94 96 98 101
19 19 20 20 21 21 22 22 23 23 24 25 26 27 29 30 33 34 36 36 36 35 33 32 33 34 33 34 37 36 35 38 41 42 42 43 45 46 46 48 49 50 51 52 54 55 57 58 59 59 60 61 62 63 64 65 66 66 67 68 69 69 70 71 72 73 73 74 74 75 75 76 77 79 81 83 85 87 90 92 94 96 97 100 101 103
20 21 21 21 22 23 23 23 24 25 25 25 26 28 29 31 34 36 37 38 40 41 38 35 33 33 32 30 31 33 34 39 44 43 43 46 47 49 50 51 50 50 51 53 55 56 58 59 59 60 61 62 63 64 64 65 66 67 68 68 69 69 70 71 71 72 73 73 73 74 75 77 79 82 84 86 88 90 93 95 97 98 99 99 99 98
21 22 22 22 23 24 25 25 26 26 26 26 27 28 30 33 34 37 39 39 42 45 43 39 36 34 32 28 26 30 34 38 42 44 46 49 50 52 53 52 51 51 52 54 55 57 57 58 59 60 61 62 63 64 64 65 66 66 67 68 68 69 70 70 71 71 72 72 72 74 76 79 81 84 86 88 90 93 95 97 97 96 95 93 91 89
22 23 24 24 23 24 25 26 27 28 28 28 29 30 32 34 35 37 41 42 44 47 46 44 40 36 33 28 24 27 32 37 43 46 48 50 51 53 53 53 52 52 54 55 56 57 57 58 59 60 62 62 63 64 64 65 66 66 67 68 68 69 69 70 70 70 71 72 73 75 77 80 83 86 88 91 93 95 96 96 94 92 90 87 86 85
23 23 24 26 25 25 26 27 28 29 30 31 31 32 33 36 37 39 42 44 46 48 48 47 45 38 32 28 26 29 35 40 44 46 47 49 51 53 54 53 53 54 55 56 57 57 58 59 60 61 62 62 63 64 65 65 66 67 68 68 69 69 69 69 69 70 71 73 75 77 80 82 85 88 92 94 95 95 94 92 90 88 85 84 85 86
24 24 24 26 27 27 27 28 29 31 32 33 33 33 34 37 39 41 43 45 46 50 51 51 49 39 31 30 34 37 40 42 44 46 48 50 52 54 54 54 55 56 57 57 57 58 59 59 60 61 62 63 63 64 65 66 67 67 68 68 69 69 69 69 70 71 73 75 78 80 82 85 88 92 94 94 93 91 88 86 84 83 82 83 85 88
25 25 25 25 27 28 29 30 31 32 33 34 34 34 35 38 41 43 45 46 47 51 51 53 53 39 31 36 42 42 43 44 46 49 50 51 53 53 54 55 56 57 57 57 58 58 59 59 60 61 62 63 63 64 65 66 67 67 68 68 68 68 68 69 71 73 75 77 80 82 85 88 91 93 92 90 87 84 81 80 80 80 82 83 86 88
26 26 26 26 27 28 28 30 32 33 34 35 35 35 36 38 41 44 47 48 49 51 49 53 55 40 34 41 45 44 45 46 49 51 51 52 53 53 55 56 57 57 57 58 58 58 59 60 61 62 62 63 64 65 66 66 67 68 68 68 68 68 69 70 72 74 76 79 81 84 88 90 92 91 89 86 82 79 77 77 78 79 81 83 86 88
27 27 26 26 27 28 28 30 32 34 35 36 36 36 37 39 41 44 48 49 50 51 48 52 55 43 39 45 47 45 48 49 51 53 53 53 54 54 56 57 57 58 57 58 58 59 60 60 61 62 62 63 64 66 67 67 67 68 68 68 68 68 69 71 73 76 78 80 83 86 90 91 91 89 86 82 78 76 76 76 77 78 80 83 84 85
28 28 27 27 27 26 26 28 31 33 35 36 36 36 38 40 41 44 47 49 51 50 46 50 56 48 43 47 48 48 51 52 54 55 54 54 55 56 57 57 57 58 58 58 59 59 60 61 62 62 63 64 65 66 67 67 68 68 68 68 68 68 70 72 74 77 79 82 85 88 90 90 88 85 81 77 75 74 74 74 75 77 79 81 80 79
28 28 30 30 30 28 27 28 30 33 35 35 35 36 38 39 42 44 46 49 51 49 46 50 54 50 45 47 48 49 53 55 55 55 55 55 55 56 57 57 57 58 58 59 59 60 60 61 62 63 63 65 66 66 67 67 67 68 67 67 68 69 71 73 75 77 80 83 86 88 89 87 84 80 76 74 73 73 72 72 74 76 77 77 75 72
28 29 30 32 33 33 32 32 33 35 36 36 36 36 38 39 42 44 47 49 49 50 50 49 52 52 47 46 48 51 54 55 54 54 55 55 56 56 56 56 57 58 58 59 59 59 60 61 62 63 64 65 66 66 66 67 67 67 67 67 68 70 72 73 76 78 81 84 87 88 87 83 79 74 72 71 71 71 71 71 73 74 74 72 69 67
31 30 30 32 33 34 34 34 36 38 38 38 38 38 39 41 43 45 47 48 48 52 54 48 49 54 49 45 49 53 54 54 54 54 55 55 56 56 56 57 58 58 58 58 58 59 60 61 62 63 64 65 65 66 66 66 66 66 66 67 68 70 72 74 76 79 82 84 86 86 84 79 73 69 68 68 68 68 69 70 71 71 70 68 65 62
34 32 32 33 33 33 34 35 37 40 40 39 39 40 40 42 45 46 47 47 47 53 55 49 49 54 51 48 52 54 54 55 55 54 55 55 56 57 57 58 58 58 58 58 58 60 61 62 62 63 64 65 65 65 65 66 66 65 66 67 69 71 72 75 77 79 82 84 85 84 79 73 69 67 67 66 66 66 67 68 69 68 67 64 61 58
37 36 35 36 35 34 35 36 38 41 42 41 41 41 41 43 45 47 48 47 48 53 53 50 51 53 51 51 55 54 55 56 55 55 56 56 57 58 58 59 59 59 59 58 59 61 61 62 63 64 64 64 65 65 65 65 65 65 66 67 69 71 73 75 77 79 82 83 82 79 73 68 66 65 65 65 65 65 65 66 66 66 64 61 58 56
39 39 38 39 38 35 35 37 39 42 43 43 41 40 41 43 46 48 49 48 49 52 52 51 53 53 51 53 56 55 55 56 56 56 57 57 58 58 59 59 59 59 59 59 60 61 62 63 64 64 65 65 65 65 65 65 64 65 66 67 69 71 73 75 77 79 81 81 78 73 67 64 64 64 64 64 64 64 64 64 64 64 62 59 56 53
41 41 41 42 41 37 36 39 40 42 44 43 41 39 41 44 47 49 50 48 49 52 51 52 54 53 51 54 56 55 55 56 57 57 57 58 58 59 59 59 59 58 58 59 60 61 62 63 64 64 64 65 65 65 64 64 64 64 65 67 69 71 72 74 76 78 79 78 74 68 63 62 62 62 62 62 62 62 62 62 62 62 60 58 55 52
42 43 43 45 44 41 39 41 42 43 44 42 41 42 43 45 48 50 50 49 49 51 52 52 54 54 53 55 55 55 56 57 57 58 58 58 58 59 59 59 58 58 58 59 60 62 63 63 63 64 64 64 64 64 63 63 63 64 65 67 69 70 72 74 76 77 77 75 70 64 60 61 61 61 61 61 61 61 60 60 60 60 59 57 55 52
44 45 46 47 47 45 43 44 45 45 44 42 42 44 44 47 51 52 52 50 49 51 52 53 53 54 54 55 56 56 57 57 58 58 58 58 59 59 59 59 58 57 58 59 61 62 62 63 63 64 64 64 64 63 63 63 63 64 65 67 68 70 72 73 75 76 75 72 66 61 59 59 60 59 59 59 59 59 59 58 58 58 57 56 55 53
46 47 48 49 49 48 47 47 49 48 46 44 44 45 47 51 54 55 54 51 50 51 52 53 53 54 55 56 57 57 57 58 58 58 58 59 59 59 59 58 58 57 58 60 61 62 62 63 63 63 63 63 63 63 63 63 63 64 65 66 68 69 71 73 74 75 73 69 63 59 58 58 58 58 58 57 57 57 57 57 57 56 56 55 54 52
48 49 50 50 51 50 49 50 51 50 47 46 45 45 50 54 56 56 56 52 50 51 52 53 54 55 56 57 57 58 58 58 59 58 58 59 59 59 59 58 57 57 58 60 61 62 62 62 62 63 63 63 63 62 62 62 63 64 65 66 67 69 70 71 73 73 71 66 61 57 57 57 57 57 57 56 56 56 56 56 55 55 54 53 53 52
49 50 51 51 52 52 51 52 53 52 48 44 43 46 51 55 57 58 59 55 50 51 53 54 55 56 57 58 58 58 58 59 59 58 59 59 59 59 59 57 57 57 59 61 61 62 62 62 62 62 62 62 62 62 62 62 62 63 64 65 67 68 69 70 71 71 68 64 59 56 56 56 56 56 56 56 55 55 55 54 54 54 53 52 52 51
49 51 51 52 53 52 53 54 55 55 50 45 45 49 54 57 58 60 62 57 50 51 55 56 57 59 59 59 59 58 59 60 59 58 59 59 59 59 58 56 56 57 59 61 61 61 61 61 61 61 61 61 61 61 61 62 62 62 63 64 66 67 68 69 70 70 67 62 58 56 55 55 55 55 55 55 54 54 54 53 53 53 52 51 50 50
50 51 52 53 53 53 54 56 56 56 53 48 49 54 56 59 60 62 64 59 52 52 56 57 59 60 60 60 59 59 60 60 59 58 59 59 59 58 57 56 56 58 60 60 61 61 61 61 61 61 61 61 61 61 61 61 62 62 63 64 65 66 67 68 69 69 66 61 58 55 54 54 54 54 54 54 54 53 53 52 52 51 51 50 49 49
51 52 53 54 54 53 56 57 58 57 53 49 51 56 58 60 62 63 64 61 56 56 57 58 60 61 61 60 60 60 61 61 60 59 59 58 58 57 56 55 56 58 60 60 60 60 60 60 60 60 60 61 61 61 61 61 61 61 62 63 64 65 66 67 68 68 65 61 57 55 54 54 53 53 53 53 53 52 52 51 51 50 50 49 48 48
52 53 54 54 54 55 57 58 58 57 52 48 52 56 59 61 62 63 63 62 59 58 58 59 61 61 61 61 60 60 61 62 61 60 59 58 58 56 55 55 56 58 60 60 60 60 60 60 60 60 60 60 61 61 61 61 61 61 61 62 63 64 65 66 67 67 65 60 57 55 54 54 53 53 52 53 52 52 51 51 50 49 49 48 48 47
54 54 55 56 56 57 59 59 59 57 51 49 53 57 59 62 62 62 62 61 60 59 60 60 61 61 61 61 60 60 61 61 61 60 59 58 57 56 55 55 57 59 60 60 60 59 59 59 59 59 60 60 61 61 61 61 60 60 61 62 62 63 64 64 65 66 64 60 57 55 54 54 53 52 52 52 52 51 51 50 49 49 48 47 47 47
55 56 57 57 58 59 59 60 61 57 53 52 55 58 60 62 62 61 61 61 60 60 61 61 61 61 61 60 60 60 60 61 61 60 58 58 56 55 54 55 57 58 59 59 59 59 59 59 59 59 59 60 60 60 60 60 60 60 61 61 61 62 62 63 64 65 63 60 57 55 54 54 53 52 51 51 51 51 50 50 49 48 48 47 46 46
55 56 58 59 59 60 60 61 60 58 55 55 57 59 60 61 61 61 61 60 60 61 61 62 61 61 60 60 60 60 60 60 60 59 58 57 55 54 54 54 57 58 59 59 58 58 58 58 58 59 59 60 60 60 60 60 60 60 60 60 61 61 61 62 63 64 63 60 57 55 54 54 53 52 51 50 50 50 50 49 48 48 48 47 45 45
56 56 59 60 60 61 61 61 58 55 56 57 58 59 60 61 60 61 60 60 60 61 61 62 61 61 60 60 60 60 60 59 59 58 57 56 54 53 53 54 57 58 58 58 58 58 58 58 58 59 59 59 60 60 60 59 59 60 60 60 60 60 60 61 62 62 62 60 57 56 54 54 53 52 50 50 49 49 49 48 48 48 47 47 46 45
57 57 60 61 60 60 61 59 56 55 57 58 58 59 60 61 60 61 60 60 60 61 61 61 61 60 60 60 60 60 59 58 58 58 57 55 53 52 53 55 56 57 57 57 57 57 58 58 58 58 59 59 59 59 59 59 59 59 59 59 59 59 59 60 61 62 61 60 58 56 55 54 53 51 50 49 49 48 48 48 47 47 47 47 46 45
58 60 62 62 61 61 60 58 56 57 58 59 59 60 61 62 61 60 61 60 61 61 61 61 60 60 60 60 60 59 58 58 57 57 56 54 53 52 53 55 56 57 57 57 57 57 57 57 57 58 58 59 59 59 59 58 58 58 59 59 58 58 58 58 59 60 60 59 58 57 55 53 52 51 50 49 48 48 47 47 46 46 46 46 46 45
59 63 64 63 62 63 62 59 57 59 60 59 60 61 62 62 61 60 61 61 61 61 61 61 60 60 60 60 59 58 57 57 57 56 55 53 52 52 53 55 56 57 57 57 57 57 56 56 57 57 58 59 58 58 58 58 58 58 58 57 57 57 57 57 58 59 59 59 58 57 55 54 52 51 50 49 48 48 47 47 46 46 46 46 45 45
62 65 65 64 63 64 64 60 59 60 60 59 60 62 63 62 61 60 60 60 61 61 61 60 60 60 60 60 59 57 56 56 56 55 53 52 51 52 53 55 56 57 57 57 57 56 56 56 56 57 58 58 58 58 58 58 57 57 57 57 56 56 56 56 57 58 58 58 57 57 56 55 53 51 50 49 49 48 48 47 47 46 46 46 46 45
65 67 66 64 64 64 64 61 60 61 60 58 60 62 62 62 60 59 59 60 60 60 60 60 60 61 61 60 58 57 56 55 55 53 52 51 50 51 53 55 56 57 57 56 56 56 55 55 56 57 58 58 58 58 58 57 57 57 56 56 56 55 55 55 56 57 57 57 57 57 56 55 54 52 51 50 49 48 48 48 47 46 46 46 46 46
68 68 66 65 65 65 63 61 61 62 60 59 60 62 63 62 61 59 59 59 60 60 60 61 61 61 60 59 57 56 55 55 54 52 50 50 50 51 53 55 56 56 56 56 55 55 55 55 56 56 57 58 58 58 57 57 56 56 56 56 55 55 54 54 55 56 57 57 57 57 56 56 55 53 52 50 49 48 48 48 48 47 46 46 46 46
69 67 65 64 66 66 63 61 61 62 61 60 61 63 63 62 61 59 59 59 59 60 60 61 61 61 60 57 56 55 54 54 52 50 49 49 50 51 53 54 55 55 56 55 55 54 54 54 55 56 57 57 57 57 57 56 56 56 56 55 55 54 54 54 54 55 56 57 56 56 56 56 55 54 53 51 50 48 47 47 48 49 48 47 46 46
Wind_Direction
299 298 297 297 296 296 295 295 295 295 295 295 295 294 293 293 292 292 292 293 294 294 294 294 295 295 295 295 294 294 294 294 294 294 295 296 298 300 301 302 302 301 301 300 300 300 301 302 302 303 303 304 304 304 303 303 303 302 302 302 302 302 301 301 300 300 299 299 298 297 297 296 296 295 294 294 293 292 292 291 290 289 289 288 287 287
303 303 303 302 301 300 300 299 299 298 297 297 296 296 296 296 297 297 297 298 298 297 297 297 297 297 297 297 298 297 297 297 297 297 299 301 302 303 302 303 303 302 301 301 301 301 302 302 303 303 303 304 304 303 303 303 302 302 302 301 301 301 301 300 300 299 298 298 297 297 296 296 295 295 294 293 293 292 292 291 290 290 289 288 288 287
309 308 307 306 305 304 303 303 303 302 302 302 303 303 303 303 302 301 300 299 299 299 299 300 300 300 300 300 300 300 299 299 300 302 303 304 304 303 302 302 303 302 301 301 300 300 300 301 301 301 302 302 302 302 302 301 301 300 300 300 299 299 299 298 297 297 297 296 296 295 295 294 294 294 293 293 292 291 290 290 290 289 288 288 287 286
312 311 311 311 310 310 310 310 310 311 312 312 311 309 307 305 303 301 301 301 301 302 303 303 304 303 302 301 301 302 302 302 305 306 305 305 304 303 302 302 302 301 301 300 299 299 298 298 298 299 300 301 301 301 300 300 299 299 299 298 298 298 297 296 296 295 295 295 294 294 294 294 293 293 293 292 291 291 290 290 289 289 288 287 286 286
316 317 316 315 316 316 316 317 317 316 315 312 309 306 304 304 304 304 305 305 305 305 306 305 305 304 303 302 303 305 305 305 307 307 305 304 303 303 303 302 301 300 300 299 298 297 296 295 296 297 298 299 299 299 299 299 298 298 297 297 297 296 296 295 294 294 294 294 293 293 293 292 292 292 291 291 290 290 290 289 289 288 288 287 286 286
320 319 318 317 318 319 320 319 317 313 310 308 305 304 305 306 307 307 307 306 306 306 307 305 304 304 305 304 305 308 307 306 308 307 303 302 302 303 303 301 300 300 299 299 298 297 296 296 296 297 298 298 298 298 298 298 298 297 297 296 296 296 295 294 294 294 294 293 293 293 293 292 292 291 291 290 289 289 289 288 288 287 287 287 286 286
321 320 318 319 321 322 321 317 314 311 309 309 308 308 309 310 310 310 308 308 307 307 307 305 304 306 307 306 307 309 308 307 308 305 302 301 301 302 300 299 299 299 299 298 297 297 296 297 297 298 299 299 299 298 298 298 298 297 297 297 297 296 296 296 295 295 295 294 294 294 294 294 294 293 292 291 291 290 290 289 288 288 287 287 286 286
322 321 321 322 323 322 318 315 314 313 312 312 312 312 313 313 312 311 309 309 308 309 308 305 305 307 310 307 305 307 307 305 305 302 300 299 300 299 297 297 298 298 298 297 297 296 296 296 298 299 299 299 299 299 299 299 298 298 298 298 298 298 298 297 297 297 297 296 296 296 296 296 295 295 294 294 293 293 292 291 290 289 288 288 287 287
323 323 322 322 321 320 318 316 316 314 314 315 315 315 314 314 312 310 309 308 308 309 306 305 305 307 311 308 301 304 305 303 301 300 298 298 298 297 297 298 298 297 296 296 295 295 296 298 299 300 300 299 299 299 300 300 300 300 300 300 300 300 299 299 299 298 298 298 298 298 298 297 297 296 295 295 294 294 293 292 291 290 290 289 289 288
324 323 322 321 320 321 319 317 316 315 316 316 316 315 313 312 311 309 310 307 307 307 305 305 306 306 311 308 300 302 303 300 300 299 298 298 297 297 298 298 297 296 297 297 297 297 298 299 300 300 300 300 301 301 301 301 301 302 302 302 302 302 301 301 300 300 300 300 300 299 299 298 298 297 296 295 295 294 293 292 292 291 291 290 289 289
326 324 323 322 323 323 322 320 319 318 318 317 315 315 313 312 311 310 309 307 307 308 306 306 307 306 310 309 303 304 303 302 302 299 297 297 297 297 297 297 296 297 298 298 298 298 299 299 300 300 301 302 302 302 303 303 303 303 303 303 303 303 303 302 302 302 302 301 301 300 300 299 298 297 296 295 295 294 293 293 292 292 291 291 290 289
329 327 326 326 326 325 325 323 322 320 319 317 315 314 312 311 310 310 309 308 309 309 307 307 307 307 310 309 308 309 308 306 303 298 295 295 296 296 295 295 295 296 297 298 298 298 299 300 301 302 303 303 304 304 304 304 304 304 304 303 303 304 303 303 303 303 302 302 301 301 300 299 298 297 297 296 295 295 294 294 293 292 292 291 291 290
332 331 330 329 328 327 326 324 322 320 318 316 315 314 313 312 311 311 310 309 309 308 307 308 308 309 312 312 311 311 308 304 300 296 295 296 296 295 294 294 294 296 298 299 300 301 302 303 303 304 305 305 305 305 304 304 304 304 304 304 304 305 304 304 304 303 303 302 302 301 300 300 299 299 298 298 297 297 296 295 294 294 293 292 291 290
333 332 330 329 328 326 325 324 322 321 319 318 317 316 316 315 314 313 311 310 309 307 308 310 310 312 316 315 312 309 305 300 296 295 297 297 295 295 295 296 298 301 303 304 304 305 305 306 306 306 306 306 306 305 305 305 305 305 305 306 306 305 305 304 304 303 303 303 302 302 301 301 301 300 300 300 299 298 297 296 295 294 294 293 292 291
333 332 330 329 328 326 325 324 322 320 319 318 318 316 316 315 313 312 311 311 309 308 309 311 312 316 320 318 312 308 303 298 297 300 301 300 299 300 300 300 303 306 307 307 307 307 307 307 307 307 307 307 306 306 306 306 306 306 307 306 306 305 305 304 304 304 304 304 303 303 303 303 302 301 300 299 298 297 296 296 295 295 294 294 293 292
334 333 332 331 329 327 326 325 322 320 318 318 317 316 316 314 313 311 311 312 311 310 312 314 317 323 327 323 313 307 303 301 303 305 304 303 303 302 302 303 306 308 309 308 307 306 307 307 307 308 307 307 306 306 307 307 307 307 307 306 306 305 305 305 304 304 304 304 304 304 303 302 300 299 299 298 298 298 297 297 297 296 296 295 294 292
336 334 333 331 330 328 327 325 323 320 319 318 317 317 316 314 313 312 312 313 312 312 314 317 322 330 333 329 316 306 304 304 304 305 303 302 302 302 303 306 309 310 309 307 306 306 307 307 307 307 306 306 307 307 307 307 307 307 306 306 306 305 305 305 304 304 304 304 303 302 301 300 299 299 299 299 299 299 299 299 298 297 296 295 293 291
338 336 333 330 331 330 326 325 323 320 320 320 320 320 318 315 315 315 314 315 315 314 316 318 323 332 337 331 318 307 304 303 302 302 302 301 302 303 305 309 311 310 308 306 306 307 307 307 307 307 307 307 307 307 307 307 307 306 306 306 306 305 305 305 305 304 304 303 302 301 301 301 301 301 301 301 301 301 301 301 300 299 298 296 294 292
337 337 334 330 332 331 327 327 324 321 321 322 324 324 321 318 318 317 316 317 317 315 316 317 320 331 338 328 316 310 305 303 302 301 300 300 302 304 307 310 311 309 307 307 307 307 307 308 307 307 308 308 308 308 307 307 307 307 307 307 306 306 306 306 305 304 303 303 303 303 304 304 304 304 304 304 304 304 304 303 302 300 299 297 296 294
338 338 336 332 332 332 330 328 324 323 323 323 326 325 322 320 319 318 317 318 318 316 317 317 316 327 339 324 314 312 308 307 304 301 301 302 304 307 309 310 309 307 307 308 308 308 308 308 308 308 308 308 308 308 308 308 308 308 308 308 308 307 307 306 306 305 306 306 306 306 307 307 307 307 307 307 307 306 305 303 301 300 299 298 296 295
340 339 338 335 333 332 331 328 324 324 323 324 326 324 322 320 319 318 317 318 318 316 319 317 312 323 338 322 314 315 312 310 306 303 304 305 307 309 310 309 308 308 308 308 308 308 308 308 308 308 308 308 308 308 308 309 309 309 309 309 309 308 307 307 307 308 308 309 309 309 309 309 309 309 309 309 307 306 304 303 301 300 299 298 297 296
342 341 339 337 334 333 332 327 324 323 323 324 325 324 322 319 318 318 316 317 317 316 321 317 310 322 336 320 315 317 314 309 305 304 306 308 309 310 309 308 308 308 308 308 308 308 308 308 309 309 309 309 309 310 310 311 311 310 310 309 309 309 308 309 310 310 310 310 311 311 311 311 311 311 310 309 307 305 304 303 302 301 301 300 299 298
343 342 340 338 336 336 333 328 325 324 323 323 324 323 320 318 317 316 314 316 316 318 324 316 309 323 333 319 317 319 312 307 306 307 309 310 311 310 308 309 309 309 309 308 309 309 309 309 309 310 310 310 311 312 312 312 311 311 310 310 310 310 310 311 311 312 312 312 313 312 312 313 312 312 310 309 307 306 305 304 303 303 303 302 301 299
345 344 342 340 340 339 334 329 326 324 323 324 324 322 318 317 316 313 313 314 315 320 324 313 311 325 329 319 319 318 310 308 309 311 312 312 311 310 309 310 309 309 309 309 310 310 310 310 310 311 312 312 312 313 312 312 311 311 310 310 311 311 312 312 313 313 314 314 314 314 314 314 313 312 310 309 308 307 307 306 306 307 307 305 304 301
346 345 342 341 343 342 337 332 326 324 324 325 326 322 319 317 315 312 312 312 316 320 318 312 315 323 324 321 320 314 310 311 312 313 313 312 311 311 310 310 309 310 311 311 311 310 310 311 312 312 313 313 313 312 312 311 311 311 311 311 312 313 313 314 315 315 315 316 315 315 315 314 313 312 311 310 310 309 309 310 310 311 310 309 307 305
345 345 341 339 341 341 338 334 328 326 327 327 326 323 320 318 314 311 311 312 317 317 312 314 318 318 320 324 318 311 310 312 313 313 313 312 312 311 311 310 310 311 311 310 310 310 311 312 313 313 313 312 312 312 312 312 311 312 312 313 314 314 315 316 316 317 317 317 316 316 315 314 313 313 312 312 312 312 313 314 314 315 314 313 311 309
340 341 337 335 339 338 335 332 327 326 328 328 326 324 321 317 313 310 310 313 317 312 311 320 319 313 319 323 313 310 312 313 313 313 312 313 312 312 312 311 311 311 310 310 310 311 313 313 313 313 313 313 313 312 312 312 313 313 314 314 315 316 317 317 318 318 318 317 317 316 316 315 314 314 314 314 314 315 316 317 318 319 319 318 316 314
334 337 332 330 335 335 332 329 324 324 328 328 327 325 320 315 311 310 310 314 314 309 313 322 315 311 319 319 311 311 313 313 314 313 313 313 313 312 312 311 311 311 311 311 313 313 314 314 313 313 313 313 313 313 313 314 314 315 315 316 316 317 318 319 319 319 319 318 317 317 316 316 315 315 315 316 317 317 318 320 322 323 324 323 321 318
331 334 330 327 330 331 329 326 322 323 326 327 328 326 320 314 311 310 311 313 311 309 315 318 312 312 319 315 310 313 313 313 314 314 314 314 313 313 312 311 312 312 313 314 314 315 315 314 314 314 313 313 313 314 314 315 315 316 316 317 317 318 319 320 320 320 319 319 318 318 317 316 316 317 318 318 319 320 321 323 326 327 328 328 325 322
330 331 329 327 329 331 326 321 320 321 323 326 329 325 318 314 312 310 312 312 311 312 316 315 312 315 317 312 311 313 313 313 314 315 315 315 313 313 312 312 313 313 314 314 315 315 315 315 315 314 313 314 314 315 315 316 316 316 317 318 318 319 320 321 321 321 320 320 319 319 318 317 318 319 320 321 322 323 324 326 329 331 332 332 330 327
330 330 329 326 328 332 326 319 319 318 320 326 329 324 318 315 312 311 313 314 313 314 315 313 313 316 316 312 312 313 313 314 315 316 316 314 313 312 312 313 314 314 314 314 315 316 315 315 314 314 314 315 315 316 316 316 316 317 318 319 319 320 321 322 322 322 321 321 321 320 318 318 320 321 322 323 324 325 326 328 331 333 335 336 335 332
330 329 328 325 327 331 327 322 320 318 321 327 328 323 320 315 313 313 315 316 315 314 313 313 314 315 314 312 312 313 314 314 315 316 315 313 312 312 313 314 314 313 314 315 316 316 315 315 314 314 315 316 316 316 317 317 317 318 319 320 320 322 323 323 323 323 323 322 321 320 319 320 321 322 323 324 325 327 328 330 332 335 338 339 338 337
331 329 328 326 326 329 328 324 322 321 325 330 328 324 319 315 315 317 317 318 317 315 313 313 314 314 313 313 314 314 315 314 315 315 314 313 313 313 314 314 313 313 314 316 316 316 315 315 315 316 317 317 317 317 317 318 318 319 319 320 321 323 324 324 325 325 324 323 321 320 320 321 322 323 324 325 327 328 330 331 333 336 339 341 341 340
331 329 328 326 326 327 327 324 322 324 328 331 329 324 318 316 318 319 319 320 319 316 313 313 314 315 315 315 315 315 315 314 314 315 314 313 314 314 314 314 314 314 315 316 316 316 315 316 316 317 318 317 318 318 318 319 319 319 320 321 323 324 325 326 327 326 325 323 321 320 320 321 323 324 325 326 327 329 331 332 334 336 339 342 342 342
330 328 327 327 325 326 326 323 323 327 331 333 330 322 317 317 320 321 321 322 321 317 314 314 315 316 316 316 315 315 314 313 314 315 314 313 314 314 314 314 314 314 316 316 316 316 316 317 318 318 318 318 318 318 319 319 319 320 321 322 324 325 327 328 328 327 326 323 321 320 320 322 324 325 325 326 327 329 331 333 334 336 338 341 342 343
328 327 327 326 325 325 324 322 323 327 332 334 328 319 316 318 321 323 324 325 324 318 314 315 317 317 316 316 315 314 313 313 314 316 314 313 314 314 314 314 314 315 316 317 317 317 317 318 318 318 318 319 319 319 319 319 319 320 322 323 325 326 328 329 329 328 326 323 321 320 320 322 323 325 326 326 327 329 331 332 334 335 337 339 341 342
326 326 326 325 325 324 322 322 325 327 331 334 326 317 318 321 323 324 325 327 326 318 315 317 317 316 316 315 314 314 313 313 315 316 314 314 314 314 314 314 314 315 317 317 317 318 318 318 319 319 319 319 319 319 319 319 320 321 322 324 325 327 329 330 330 328 326 323 321 320 320 321 323 325 326 326 327 328 329 331 333 334 335 337 339 340
326 326 326 324 324 323 320 322 326 327 332 333 324 318 321 324 325 324 325 328 326 318 316 317 316 316 316 315 315 315 314 314 315 315 314 314 314 314 314 314 314 316 317 318 318 318 318 319 319 320 320 320 320 320 320 320 320 321 323 324 326 328 330 331 331 329 327 324 322 320 320 321 322 324 325 326 326 327 328 330 332 333 334 335 336 337
326 326 325 324 324 322 319 323 325 327 332 331 321 318 322 324 324 323 323 326 324 318 317 317 316 316 316 315 315 316 314 314 315 314 314 314 314 314 314 314 315 317 318 318 318 319 319 320 320 320 321 321 320 320 320 320 321 322 323 325 326 329 331 332 331 330 328 325 322 320 320 321 321 323 325 325 326 326 327 328 329 331 333 334 335 335
327 326 324 324 323 320 320 323 325 327 331 326 318 319 322 323 323 323 322 322 322 318 317 316 315 316 316 315 316 315 314 314 314 314 314 314 314 314 314 315 316 318 318 318 319 319 320 320 320 321 321 321 321 320 321 321 321 322 324 325 327 329 331 332 332 331 329 326 323 321 320 320 321 322 323 324 325 325 325 326 327 329 330 332 333 333
328 326 324 323 322 320 321 323 325 328 328 322 317 319 322 322 323 322 320 320 319 317 316 316 315 316 315 315 315 315 314 314 313 314 314 314 314 314 314 315 317 318 319 319 320 320 320 320 321 322 322 322 321 321 321 321 322 323 324 325 327 328 330 332 332 332 330 327 324 321 321 320 321 321 322 323 325 325 325 325 326 327 328 330 331 332
328 325 323 321 320 321 322 323 325 327 325 320 317 319 320 321 322 320 319 318 317 316 315 315 315 315 315 315 314 314 314 313 313 314 314 314 314 314 314 316 318 319 319 319 320 320 320 321 322 322 323 323 322 322 322 322 323 323 324 325 327 328 330 332 333 332 331 328 325 322 321 321 321 321 322 323 324 324 324 324 325 325 326 327 329 330
328 324 321 320 320 321 322 324 326 325 321 318 317 318 319 320 320 319 318 317 316 315 314 314 314 314 314 314 314 314 313 313 313 313 314 314 314 314 315 317 318 319 319 319 320 320 321 322 323 323 323 323 323 323 323 323 323 324 324 325 327 328 330 332 333 333 332 330 327 324 322 321 321 321 322 322 323 324 324 324 324 324 325 326 327 328
327 323 319 319 320 321 321 324 326 322 316 315 317 318 319 319 318 317 317 316 314 314 313 314 314 314 314 314 314 314 313 312 313 313 314 314 314 315 316 318 319 319 319 320 320 321 321 322 323 324 324 324 323 323 323 323 324 324 325 326 327 328 330 332 334 335 334 331 329 326 323 322 322 322 322 322 323 324 325 325 325 325 325 325 326 326
325 320 317 318 320 319 320 324 324 317 313 314 316 317 317 317 316 316 315 315 314 313 313 313 314 313 313 313 314 313 312 312 313 314 314 314 314 315 316 318 319 319 319 320 320 321 322 323 324 324 324 324 324 324 324 324 324 325 325 326 327 328 330 332 334 335 335 333 331 328 325 323 322 322 322 323 323 324 325 326 326 326 325 326 326 326
322 316 316 319 319 318 321 324 321 314 312 313 315 316 316 316 315 315 314 314 313 313 313 313 313 313 313 313 313 313 312 312 313 313 314 314 314 316 317 318 319 319 319 320 321 322 323 323 324 324 324 325 325 325 325 325 325 325 326 327 327 329 331 333 335 336 336 335 332 330 327 325 323 323 323 323 324 324 325 325 326 327 327 327 327 327
318 314 317 319 318 317 321 323 317 312 313 314 313 315 315 315 314 314 313 314 313 312 313 313 313 313 313 313 313 313 312 313 313 313 314 314 315 316 317 318 319 319 320 320 321 322 323 324 324 325 325 326 326 325 325 326 326 326 327 327 328 329 331 334 336 337 338 336 334 332 329 327 325 324 324 324 324 325 325 325 326 327 327 328 329 329
314 314 317 318 316 317 320 319 314 312 313 313 312 313 314 313 313 313 313 313 312 312 312 312 312 313 313 313 313 312 312 313 313 313 314 314 315 316 317 318 319 319 320 321 322 323 324 324 325 325 326 326 327 326 326 326 327 327 328 328 329 330 332 334 337 338 339 338 336 334 332 329 327 325 324 324 324 324 324 324 325 326 326 327 328 329
312 314 317 316 315 317 318 315 311 311 312 311 310 312 313 312 312 312 311 312 311 312 312 312 312 313 313 313 313 312 312 312 312 313 313 314 315 316 317 318 319 319 320 321 322 323 324 325 325 326 327 327 327 327 327 327 328 328 329 329 330 331 332 335 337 339 340 340 338 336 334 331 328 325 324 323 323 323 323 323 323 324 325 326 327 328
311 315 316 313 313 316 316 312 309 310 311 310 309 310 312 311 311 311 311 311 311 312 312 312 313 313 313 313 311 311 312 312 312 313 313 314 315 316 317 318 319 319 320 321 322 323 325 325 326 327 327 328 328 328 328 328 329 329 330 330 331 332 333 335 338 339 341 341 340 338 336 333 330 326 324 323 322 323 323 323 323 324 324 325 326 326
312 315 314 311 312 314 314 310 308 309 309 309 308 310 311 311 310 310 311 311 312 313 313 313 313 314 313 312 310 311 311 312 312 313 314 314 316 317 318 319 319 320 320 321 322 324 325 325 326 327 328 328 328 328 329 329 329 330 331 331 332 332 334 336 338 340 341 342 342 340 338 335 332 328 325 323 322 322 322 323 324 325 325 325 326 326
Height
5741 5740 5739 5738 5736 5735 5734 5733 5732 5730 5729 5728 5727 5726 5724 5723 5722 5720 5718 5717 5715 5714 5712 5710 5709 5708 5706 5705 5704 5702 5701 5699 5698 5696 5695 5693 5691 5690 5688 5686 5684 5682 5680 5679 5677 5675 5673 5671 5669 5667 5665 5663 5661 5660 5658 5656 5654 5652 5650 5648 5646 5644 5642 5639 5637 5635 5633 5631 5629 5628 5625 5624 5622 5620 5618 5616 5614 5611 5609 5607 5605 5603 5601 5600 5598 5596
5739 5738 5737 5736 5734 5733 5732 5731 5729 5728 5727 5726 5724 5723 5722 5720 5719 5717 5715 5714 5713 5711 5709 5708 5707 5705 5704 5703 5702 5700 5698 5697 5695 5694 5692 5690 5689 5687 5685 5683 5681 5679 5677 5675 5673 5671 5669 5667 5665 5663 5661 5659 5657 5655 5654 5652 5649 5647 5645 5643 5640 5638 5636 5634 5631 5629 5627 5625 5623 5621 5618 5617 5615 5612 5611 5609 5606 5604 5601 5599 5597 5595 5592 5590 5588 5587
5737 5736 5735 5734 5732 5731 5730 5729 5727 5726 5725 5723 5722 5721 5719 5718 5716 5715 5713 5712 5711 5710 5708 5707 5705 5703 5702 5701 5699 5698 5696 5694 5693 5691 5689 5687 5685 5684 5682 5680 5678 5676 5674 5672 5670 5668 5666 5664 5662 5660 5658 5656 5653 5651 5650 5648 5645 5643 5641 5639 5636 5634 5631 5629 5626 5624 5621 5619 5617 5614 5612 5610 5608 5605 5603 5601 5599 5596 5594 5592 5589 5587 5584 5582 5580 5577
5736 5734 5733 5732 5731 5729 5728 5727 5725 5724 5723 5721 5720 5719 5717 5716 5715 5714 5712 5711 5709 5708 5706 5705 5703 5701 5699 5698 5697 5695 5693 5691 5690 5688 5686 5684 5682 5680 5679 5677 5675 5673 5670 5668 5666 5664 5663 5660 5658 5656 5654 5652 5650 5647 5645 5644 5641 5639 5636 5634 5632 5629 5626 5624 5621 5618 5616 5613 5611 5608 5605 5603 5601 5598 5595 5593 5590 5587 5585 5584 5581 5578 5576 5573 5570 5568
5734 5733 5731 5730 5729 5728 5726 5725 5724 5722 5721 5720 5719 5718 5717 5715 5714 5712 5711 5709 5708 5706 5704 5703 5701 5699 5697 5695 5694 5693 5690 5688 5687 5685 5683 5681 5679 5677 5675 5673 5671 5669 5667 5665 5663 5661 5659 5657 5655 5653 5651 5648 5646 5643 5641 5639 5636 5634 5631 5628 5626 5623 5620 5617 5614 5612 5609 5607 5603 5601 5598 5595 5593 5591 5587 5584 5581 5577 5575 5574 5571 5568 5565 5562 5560 5557
5733 5731 5730 5729 5728 5726 5725 5724 5723 5722 5721 5719 5718 5716 5715 5714 5712 5710 5709 5707 5706 5704 5702 5700 5699 5697 5694 5691 5690 5690 5688 5685 5684 5682 5680 5677 5676 5674 5672 5670 5667 5666 5663 5661 5659 5656 5655 5653 5650 5648 5646 5643 5641 5638 5635 5633 5630 5628 5625 5622 5619 5616 5613 5609 5606 5603 5601 5599 5595 5592 5590 5587 5584 5582 5578 5574 5571 5568 5565 5563 5561 5558 5554 5552 5549 5546
5732 5730 5729 5728 5726 5725 5724 5723 5722 5720 5719 5718 5716 5714 5713 5711 5710 5708 5706 5705 5703 5701 5700 5697 5695 5695 5693 5688 5686 5686 5685 5683 5681 5679 5676 5674 5673 5671 5668 5666 5663 5661 5659 5657 5654 5652 5649 5647 5645 5643 5640 5637 5634 5631 5629 5626 5623 5621 5618 5615 5612 5609 5605 5601 5598 5595 5592 5589 5586 5583 5580 5578 5574 5571 5569 5564 5560 5558 5555 5552 5550 5547 5544 5541 5538 5535
5730 5729 5728 5726 5725 5724 5723 5722 5720 5719 5717 5716 5714 5712 5711 5709 5707 5706 5704 5702 5700 5699 5697 5694 5692 5691 5691 5687 5683 5682 5682 5680 5678 5675 5672 5670 5669 5667 5664 5662 5659 5657 5655 5652 5650 5647 5645 5642 5640 5637 5634 5631 5628 5625 5622 5619 5616 5613 5610 5607 5604 5601 5597 5593 5589 5586 5583 5580 5577 5574 5571 5568 5565 5561 5559 5554 5551 5548 5544 5541 5539 5535 5532 5529 5526 5524
5729 5728 5726 5725 5724 5723 5721 5720 5718 5716 5715 5713 5712 5710 5708 5706 5705 5703 5701 5699 5697 5696 5694 5691 5689 5687 5688 5686 5681 5679 5679 5676 5674 5671 5669 5667 5664 5662 5660 5658 5655 5653 5650 5648 5645 5642 5640 5637 5634 5631 5628 5624 5621 5618 5615 5612 5609 5605 5603 5599 5597 5593 5588 5584 5580 5577 5574 5570 5567 5565 5561 5558 5555 5551 5548 5545 5542 5538 5533 5530 5528 5524 5521 5518 5515 5512
5728 5726 5725 5724 5722 5721 5719 5717 5716 5714 5713 5711 5709 5708 5706 5704 5702 5700 5698 5696 5694 5693 5691 5688 5686 5684 5685 5683 5679 5677 5676 5673 5671 5668 5665 5662 5660 5657 5655 5653 5651 5648 5645 5643 5640 5637 5634 5632 5628 5625 5622 5618 5614 5611 5608 5605 5601 5598 5595 5592 5589 5585 5579 5575 5571 5568 5566 5561 5558 5555 5551 5548 5546 5541 5537 5535 5533 5529 5523 5520 5517 5513 5509 5506 5503 5500
5726 5725 5723 5722 5720 5718 5716 5715 5713 5712 5710 5708 5706 5705 5703 5701 5699 5696 5695 5692 5691 5689 5687 5685 5683 5680 5680 5679 5676 5674 5673 5670 5668 5665 5661 5657 5655 5652 5650 5648 5645 5643 5641 5638 5635 5632 5629 5626 5622 5619 5616 5612 5608 5604 5601 5597 5594 5590 5587 5584 5581 5577 5570 5566 5562 5559 5557 5552 5548 5545 5541 5538 5536 5531 5527 5525 5522 5518 5513 5510 5506 5502 5498 5495 5491 5487
5725 5723 5721 5719 5718 5716 5714 5712 5711 5709 5707 5705 5704 5702 5700 5698 5696 5694 5691 5689 5687 5686 5684 5683 5680 5678 5677 5675 5672 5670 5667 5665 5662 5659 5655 5652 5649 5647 5644 5641 5640 5638 5637 5634 5631 5627 5624 5620 5616 5613 5609 5606 5602 5597 5593 5590 5586 5583 5580 5576 5573 5569 5562 5557 5554 5551 5547 5543 5539 5535 5531 5528 5525 5520 5517 5513 5511 5508 5502 5498 5495 5490 5486 5483 5479 5474
5723 5721 5719 5717 5716 5714 5712 5710 5708 5707 5705 5703 5701 5699 5697 5695 5692 5690 5688 5686 5684 5682 5681 5680 5678 5675 5674 5672 5668 5665 5661 5657 5654 5651 5649 5646 5643 5640 5638 5636 5634 5634 5632 5629 5625 5621 5618 5614 5610 5606 5602 5599 5595 5590 5586 5582 5579 5576 5572 5567 5565 5561 5554 5549 5545 5542 5538 5534 5530 5525 5521 5518 5514 5509 5506 5502 5499 5496 5490 5486 5482 5477 5473 5469 5465 5460
5721 5719 5718 5716 5714 5712 5710 5708 5706 5704 5702 5700 5698 5696 5694 5691 5688 5686 5684 5682 5680 5679 5678 5677 5675 5673 5672 5669 5664 5660 5656 5651 5647 5645 5644 5641 5638 5635 5633 5631 5629 5628 5625 5622 5618 5614 5610 5606 5602 5598 5595 5591 5587 5583 5578 5575 5571 5567 5564 5559 5556 5552 5546 5540 5537 5533 5529 5525 5521 5516 5511 5508 5503 5499 5495 5491 5487 5483 5478 5473 5468 5464 5460 5454 5449 5444
5720 5718 5716 5714 5712 5710 5708 5707 5704 5702 5700 5698 5696 5694 5692 5689 5686 5683 5680 5678 5676 5674 5675 5674 5672 5670 5669 5666 5660 5655 5651 5646 5642 5641 5639 5636 5632 5630 5628 5625 5623 5621 5618 5614 5610 5606 5602 5598 5595 5591 5587 5583 5579 5575 5571 5567 5563 5559 5555 5551 5547 5544 5539 5533 5528 5524 5520 5516 5512 5507 5502 5497 5493 5488 5485 5481 5476 5471 5466 5460 5455 5451 5446 5439 5433 5427
5718 5716 5715 5713 5710 5709 5707 5705 5703 5701 5699 5697 5695 5692 5690 5687 5684 5680 5677 5675 5671 5668 5669 5670 5669 5668 5666 5663 5656 5650 5646 5641 5637 5636 5633 5630 5627 5624 5621 5620 5618 5616 5612 5608 5604 5600 5596 5592 5588 5584 5580 5576 5572 5568 5563 5559 5555 5551 5547 5543 5539 5535 5530 5525 5521 5516 5511 5507 5503 5499 5493 5488 5483 5478 5474 5470 5465 5459 5452 5447 5442 5437 5431 5424 5418 5411
5717 5715 5713 5711 5709 5707 5705 5703 5701 5698 5697 5695 5693 5690 5687 5684 5681 5677 5674 5672 5668 5663 5662 5664 5664 5664 5662 5659 5653 5647 5642 5637 5633 5631 5628 5624 5621 5617 5615 5614 5613 5610 5606 5602 5598 5594 5590 5586 5582 5578 5574 5569 5565 5561 5556 5552 5548 5544 5540 5536 5531 5527 5523 5518 5513 5509 5504 5499 5496 5491 5485 5480 5474 5468 5463 5457 5452 5446 5439 5433 5427 5421 5415 5410 5403 5396
5716 5714 5711 5709 5708 5706 5703 5701 5699 5696 5694 5692 5690 5687 5684 5680 5678 5674 5670 5667 5664 5659 5656 5656 5658 5660 5658 5654 5649 5644 5639 5634 5630 5626 5623 5619 5615 5612 5610 5609 5607 5603 5599 5595 5591 5587 5583 5579 5575 5571 5566 5562 5558 5553 5549 5545 5541 5536 5532 5528 5524 5519 5515 5510 5505 5501 5496 5491 5487 5482 5477 5470 5463 5457 5450 5444 5438 5431 5424 5418 5411 5405 5400 5394 5387 5381
5715 5713 5710 5707 5706 5704 5701 5699 5696 5693 5691 5689 5687 5684 5681 5677 5674 5671 5667 5664 5660 5655 5651 5649 5650 5655 5654 5648 5644 5641 5636 5632 5626 5622 5618 5613 5610 5607 5605 5604 5601 5597 5592 5588 5585 5581 5576 5572 5568 5563 5559 5555 5550 5546 5542 5537 5533 5528 5524 5519 5514 5510 5505 5501 5496 5492 5487 5481 5476 5471 5465 5459 5452 5444 5437 5430 5422 5415 5408 5401 5394 5388 5384 5378 5372 5366
5713 5711 5709 5706 5704 5702 5699 5697 5694 5691 5689 5686 5684 5681 5678 5674 5671 5668 5664 5661 5657 5652 5648 5643 5643 5649 5650 5643 5639 5635 5631 5627 5622 5617 5613 5609 5606 5603 5600 5598 5594 5590 5586 5582 5578 5574 5570 5566 5561 5557 5553 5548 5544 5539 5534 5529 5525 5520 5515 5510 5506 5501 5497 5492 5486 5482 5477 5471 5464 5459 5453 5446 5438 5430 5422 5415 5407 5400 5394 5387 5381 5376 5370 5364 5359 5352
5712 5710 5707 5705 5702 5699 5697 5694 5691 5689 5686 5684 5681 5678 5675 5671 5667 5664 5661 5659 5655 5650 5647 5639 5635 5644 5646 5637 5633 5630 5625 5621 5616 5612 5609 5605 5602 5599 5595 5592 5588 5584 5580 5576 5572 5568 5564 5559 5555 5550 5546 5541 5536 5531 5526 5522 5517 5512 5507 5502 5498 5493 5488 5483 5478 5472 5466 5460 5454 5447 5440 5433 5426 5417 5410 5402 5395 5388 5382 5376 5370 5364 5358 5352 5345 5339
5710 5708 5705 5703 5700 5697 5695 5692 5688 5686 5683 5681 5679 5676 5672 5669 5665 5660 5656 5655 5652 5648 5646 5637 5629 5638 5642 5633 5628 5626 5620 5616 5611 5607 5605 5601 5598 5595 5590 5586 5582 5578 5574 5570 5566 5562 5557 5553 5548 5544 5539 5534 5529 5524 5519 5514 5509 5504 5499 5494 5490 5484 5479 5474 5468 5462 5456 5450 5443 5436 5428 5421 5413 5405 5397 5391 5384 5378 5371 5365 5359 5353 5347 5339 5332 5325
5708 5706 5704 5702 5699 5696 5693 5690 5686 5683 5681 5679 5676 5673 5669 5666 5663 5658 5653 5651 5648 5644 5644 5634 5624 5631 5635 5627 5623 5621 5614 5609 5606 5603 5600 5597 5594 5589 5584 5580 5576 5572 5568 5564 5560 5555 5551 5546 5541 5537 5532 5526 5521 5516 5511 5506 5501 5496 5491 5486 5481 5476 5470 5465 5459 5453 5446 5439 5432 5424 5416 5409 5401 5393 5386 5379 5373 5367 5361 5355 5348 5342 5335 5327 5319 5311
5706 5704 5701 5699 5698 5695 5692 5688 5685 5681 5678 5676 5674 5670 5667 5663 5660 5656 5651 5647 5643 5641 5641 5631 5621 5625 5628 5622 5618 5614 5607 5603 5600 5597 5595 5591 5588 5583 5578 5574 5570 5566 5562 5557 5553 5548 5544 5539 5534 5529 5524 5519 5514 5509 5504 5499 5494 5489 5483 5478 5473 5468 5462 5456 5450 5443 5436 5429 5421 5413 5405 5397 5390 5382 5375 5369 5363 5357 5351 5344 5337 5330 5322 5314 5305 5297
5704 5702 5698 5695 5694 5692 5690 5687 5683 5680 5677 5674 5671 5668 5664 5660 5656 5652 5648 5644 5639 5637 5636 5629 5619 5619 5622 5618 5613 5608 5601 5598 5595 5591 5589 5585 5581 5577 5573 5568 5564 5559 5555 5550 5546 5542 5537 5532 5527 5522 5517 5512 5507 5502 5497 5491 5486 5481 5476 5471 5465 5460 5454 5448 5441 5434 5426 5419 5411 5403 5394 5387 5379 5372 5365 5359 5352 5346 5340 5333 5326 5319 5310 5301 5292 5284
5703 5700 5697 5693 5690 5687 5685 5683 5679 5676 5673 5671 5668 5665 5661 5657 5652 5648 5644 5640 5636 5631 5628 5626 5618 5614 5617 5616 5608 5602 5597 5594 5591 5587 5583 5579 5575 5571 5567 5562 5558 5553 5549 5545 5540 5536 5531 5526 5521 5515 5510 5505 5500 5495 5489 5484 5479 5473 5467 5462 5457 5451 5445 5438 5431 5424 5417 5409 5401 5393 5385 5378 5370 5363 5356 5350 5343 5337 5330 5323 5316 5308 5299 5290 5281 5273
5701 5699 5696 5692 5689 5685 5682 5679 5675 5672 5669 5667 5664 5661 5657 5653 5648 5644 5640 5637 5633 5625 5620 5623 5617 5608 5612 5612 5603 5597 5593 5589 5587 5583 5578 5574 5569 5565 5560 5556 5552 5548 5544 5539 5535 5530 5525 5519 5514 5509 5504 5498 5493 5487 5482 5476 5471 5465 5459 5454 5448 5442 5436 5429 5423 5415 5407 5400 5392 5384 5376 5368 5361 5355 5348 5342 5335 5328 5321 5314 5306 5298 5289 5280 5271 5264
5698 5696 5693 5690 5687 5684 5680 5677 5672 5668 5666 5663 5661 5657 5653 5648 5643 5640 5636 5633 5629 5620 5614 5617 5612 5604 5606 5605 5596 5592 5588 5583 5580 5577 5573 5569 5563 5558 5554 5549 5545 5541 5537 5532 5527 5522 5518 5512 5507 5502 5497 5491 5486 5480 5475 5469 5463 5457 5451 5445 5440 5434 5427 5421 5414 5407 5399 5391 5383 5374 5366 5359 5352 5346 5340 5334 5328 5321 5314 5306 5298 5289 5280 5271 5263 5256
5694 5692 5690 5686 5684 5682 5677 5673 5669 5665 5662 5659 5657 5653 5649 5644 5638 5634 5631 5629 5624 5615 5611 5611 5606 5600 5600 5597 5590 5587 5583 5578 5574 5571 5566 5562 5557 5552 5547 5543 5539 5534 5529 5525 5520 5515 5510 5505 5500 5495 5490 5484 5479 5473 5467 5461 5455 5450 5444 5438 5432 5426 5419 5413 5406 5398 5391 5383 5374 5366 5358 5352 5345 5339 5333 5326 5320 5313 5306 5299 5290 5282 5273 5264 5256 5249
5691 5688 5686 5682 5680 5679 5675 5670 5666 5662 5658 5656 5653 5650 5644 5639 5634 5629 5627 5624 5618 5611 5608 5605 5599 5597 5595 5588 5583 5582 5577 5572 5568 5564 5560 5555 5550 5546 5541 5536 5532 5527 5522 5518 5513 5508 5504 5498 5493 5488 5482 5477 5471 5466 5460 5454 5448 5443 5437 5431 5425 5418 5412 5405 5398 5390 5382 5374 5366 5358 5351 5345 5339 5332 5326 5319 5313 5306 5299 5291 5283 5275 5266 5258 5250 5243
5688 5685 5682 5677 5675 5675 5672 5667 5663 5659 5654 5652 5650 5646 5640 5634 5630 5625 5621 5619 5614 5607 5603 5599 5593 5592 5590 5582 5577 5575 5571 5566 5562 5558 5553 5549 5544 5540 5535 5530 5525 5521 5516 5512 5507 5502 5497 5492 5487 5481 5475 5470 5464 5458 5453 5447 5442 5436 5430 5424 5418 5411 5404 5397 5390 5382 5374 5365 5358 5350 5344 5338 5332 5326 5319 5313 5306 5299 5293 5285 5277 5269 5261 5253 5246 5239
5685 5681 5678 5673 5670 5670 5667 5663 5659 5655 5651 5648 5645 5641 5636 5630 5624 5620 5617 5614 5610 5603 5598 5593 5588 5586 5583 5577 5573 5569 5565 5560 5556 5552 5548 5543 5538 5533 5528 5524 5519 5515 5510 5505 5500 5496 5491 5486 5480 5474 5468 5463 5457 5451 5446 5440 5434 5428 5422 5416 5410 5404 5397 5389 5382 5374 5365 5357 5350 5343 5338 5332 5326 5320 5313 5307 5300 5294 5287 5280 5272 5265 5257 5249 5241 5235
5682 5677 5674 5669 5664 5663 5661 5657 5653 5649 5646 5644 5640 5635 5630 5624 5619 5615 5611 5609 5605 5598 5592 5588 5584 5580 5576 5571 5567 5563 5559 5554 5550 5547 5542 5536 5531 5527 5522 5517 5513 5508 5504 5499 5494 5489 5484 5479 5473 5467 5461 5455 5449 5444 5438 5433 5427 5421 5415 5409 5403 5396 5389 5382 5374 5365 5357 5349 5343 5337 5331 5326 5320 5314 5307 5301 5295 5288 5282 5275 5268 5260 5253 5245 5238 5231
5678 5673 5669 5665 5660 5657 5656 5651 5647 5643 5641 5638 5634 5628 5622 5618 5613 5609 5606 5604 5600 5593 5587 5582 5579 5574 5569 5564 5560 5556 5553 5548 5545 5541 5536 5529 5524 5520 5516 5511 5506 5502 5497 5492 5487 5483 5477 5472 5466 5459 5454 5448 5442 5436 5431 5425 5420 5414 5408 5402 5395 5389 5382 5374 5366 5357 5349 5342 5336 5330 5325 5319 5314 5308 5302 5296 5290 5283 5277 5270 5263 5256 5249 5242 5235 5228
5674 5669 5665 5661 5656 5652 5650 5646 5640 5638 5636 5633 5628 5622 5616 5611 5607 5603 5599 5598 5594 5587 5581 5577 5573 5568 5563 5558 5554 5550 5546 5542 5538 5535 5529 5523 5519 5514 5509 5505 5500 5495 5491 5486 5481 5476 5470 5464 5458 5452 5447 5441 5435 5430 5424 5418 5413 5407 5401 5395 5388 5382 5375 5367 5359 5351 5343 5336 5330 5324 5319 5313 5307 5302 5296 5290 5284 5278 5271 5265 5258 5252 5245 5238 5231 5225
5670 5666 5661 5657 5652 5648 5644 5640 5635 5632 5632 5630 5624 5617 5611 5606 5602 5596 5592 5591 5589 5581 5573 5570 5566 5561 5557 5552 5548 5544 5540 5536 5532 5528 5522 5517 5513 5508 5503 5498 5494 5489 5484 5479 5474 5469 5463 5457 5452 5446 5440 5435 5429 5423 5417 5412 5406 5400 5394 5388 5382 5375 5368 5360 5352 5344 5336 5329 5323 5318 5313 5308 5302 5296 5290 5284 5279 5273 5267 5260 5254 5248 5241 5235 5228 5222
5667 5662 5657 5652 5648 5644 5639 5635 5630 5626 5626 5625 5618 5611 5605 5600 5596 5590 5584 5585 5584 5575 5567 5564 5560 5555 5551 5546 5542 5538 5533 5529 5526 5522 5516 5510 5506 5502 5497 5492 5487 5482 5478 5472 5467 5462 5456 5451 5445 5440 5434 5428 5422 5416 5411 5405 5399 5393 5387 5381 5374 5368 5360 5353 5345 5337 5330 5323 5317 5312 5307 5302 5297 5291 5285 5279 5274 5268 5262 5256 5250 5244 5238 5232 5225 5219
5663 5658 5653 5648 5644 5639 5633 5629 5625 5620 5618 5616 5609 5603 5598 5593 5589 5583 5577 5577 5577 5569 5562 5558 5553 5548 5544 5539 5535 5531 5525 5521 5519 5516 5510 5505 5500 5495 5490 5486 5481 5476 5471 5466 5460 5455 5449 5444 5438 5433 5427 5421 5415 5410 5404 5398 5393 5387 5381 5374 5368 5361 5354 5346 5338 5331 5324 5317 5311 5306 5301 5296 5291 5285 5280 5274 5269 5263 5258 5252 5246 5240 5234 5228 5222 5216
5658 5653 5649 5643 5639 5634 5628 5624 5619 5615 5613 5609 5602 5596 5592 5587 5583 5577 5570 5569 5569 5563 5557 5553 5547 5542 5538 5533 5528 5524 5518 5514 5512 5509 5504 5499 5494 5488 5483 5479 5474 5469 5464 5459 5454 5448 5443 5437 5431 5426 5420 5414 5409 5403 5397 5392 5386 5380 5374 5368 5361 5354 5347 5340 5333 5325 5318 5311 5305 5300 5295 5290 5285 5280 5274 5269 5263 5258 5253 5248 5242 5236 5231 5225 5219 5213
5654 5648 5643 5639 5634 5629 5623 5619 5615 5611 5609 5604 5596 5591 5587 5582 5577 5571 5564 5561 5560 5556 5551 5547 5541 5536 5531 5526 5522 5517 5511 5507 5504 5501 5497 5492 5487 5482 5477 5472 5467 5462 5457 5452 5447 5441 5436 5430 5425 5419 5414 5408 5402 5396 5391 5385 5379 5374 5368 5361 5355 5348 5342 5334 5327 5320 5312 5306 5300 5294 5289 5284 5280 5275 5269 5264 5258 5253 5248 5243 5238 5232 5227 5221 5216 5210
5649 5643 5638 5633 5629 5623 5618 5613 5609 5607 5604 5598 5590 5586 5582 5576 5571 5567 5560 5556 5553 5548 5544 5540 5535 5530 5525 5520 5516 5511 5506 5501 5497 5493 5489 5485 5480 5475 5470 5465 5461 5455 5450 5445 5440 5434 5429 5424 5418 5413 5407 5401 5395 5389 5384 5378 5372 5367 5361 5355 5349 5342 5336 5329 5322 5314 5307 5300 5294 5289 5284 5279 5274 5269 5264 5259 5254 5248 5243 5238 5233 5228 5223 5218 5212 5207
5643 5637 5632 5627 5622 5617 5612 5607 5602 5600 5597 5592 5585 5581 5576 5570 5565 5561 5556 5551 5546 5542 5537 5533 5529 5524 5519 5515 5510 5505 5500 5495 5490 5487 5482 5478 5473 5468 5464 5459 5454 5449 5444 5438 5433 5428 5422 5417 5412 5406 5401 5395 5389 5383 5377 5371 5366 5360 5355 5349 5343 5336 5330 5323 5316 5309 5302 5295 5289 5283 5278 5273 5268 5263 5258 5253 5248 5243 5238 5233 5228 5223 5218 5214 5208 5203
5639 5632 5626 5621 5617 5611 5606 5602 5597 5592 5588 5585 5581 5575 5570 5565 5560 5554 5550 5545 5541 5536 5531 5527 5523 5518 5513 5509 5504 5499 5494 5489 5484 5480 5476 5471 5466 5462 5457 5452 5447 5442 5437 5432 5427 5421 5416 5411 5405 5400 5394 5389 5383 5377 5371 5365 5359 5354 5348 5343 5337 5330 5324 5318 5311 5303 5296 5290 5283 5278 5272 5267 5262 5258 5253 5248 5243 5238 5233 5228 5223 5218 5213 5209 5204 5199
5635 5627 5620 5616 5612 5606 5601 5598 5594 5587 5581 5579 5575 5570 5564 5559 5554 5549 5544 5540 5535 5530 5526 5521 5517 5512 5507 5503 5498 5493 5488 5482 5477 5473 5469 5464 5459 5455 5450 5446 5441 5436 5431 5426 5421 5415 5410 5404 5399 5393 5388 5383 5377 5371 5365 5359 5353 5348 5342 5337 5331 5325 5318 5312 5305 5298 5291 5284 5278 5272 5266 5261 5257 5252 5247 5243 5238 5233 5228 5223 5218 5213 5208 5204 5199 5195
5629 5622 5616 5611 5608 5602 5597 5595 5590 5583 5576 5572 5569 5565 5559 5553 5548 5543 5538 5534 5529 5524 5520 5515 5510 5506 5501 5497 5492 5487 5482 5476 5471 5466 5462 5457 5453 5449 5444 5440 5435 5430 5425 5420 5415 5410 5404 5399 5393 5388 5383 5377 5371 5365 5360 5354 5348 5342 5337 5331 5325 5319 5312 5306 5299 5292 5285 5278 5272 5266 5261 5255 5250 5246 5241 5237 5233 5228 5223 5218 5213 5208 5203 5199 5194 5190
5622 5615 5610 5606 5601 5596 5593 5592 5585 5576 5571 5566 5562 5558 5553 5547 5542 5537 5531 5527 5522 5517 5513 5509 5504 5500 5495 5490 5485 5480 5475 5470 5465 5460 5455 5450 5446 5442 5438 5433 5429 5424 5419 5414 5409 5404 5399 5393 5388 5382 5377 5372 5366 5360 5354 5349 5343 5337 5331 5325 5319 5313 5307 5300 5293 5286 5279 5273 5266 5260 5255 5250 5245 5240 5235 5231 5227 5222 5218 5214 5209 5204 5199 5194 5190 5185
5615 5608 5603 5600 5594 5588 5586 5586 5578 5570 5566 5562 5556 5551 5546 5541 5536 5531 5525 5521 5516 5511 5507 5502 5497 5493 5488 5483 5479 5474 5469 5464 5459 5454 5449 5444 5440 5436 5431 5427 5423 5418 5413 5408 5403 5398 5393 5387 5382 5377 5371 5365 5360 5354 5349 5343 5338 5332 5326 5320 5314 5307 5301 5295 5288 5281 5274 5268 5261 5255 5250 5245 5240 5235 5230 5225 5221 5217 5212 5208 5204 5200 5195 5190 5186 5181
5606 5601 5597 5593 5588 5582 5580 5577 5571 5564 5561 5556 5550 5544 5540 5534 5529 5524 5519 5514 5509 5504 5500 5496 5491 5486 5482 5476 5472 5467 5462 5458 5453 5448 5443 5439 5434 5430 5425 5421 5416 5412 5407 5402 5397 5392 5387 5381 5376 5370 5365 5359 5353 5348 5342 5337 5332 5326 5320 5314 5308 5302 5295 5289 5283 5276 5270 5263 5257 5251 5245 5240 5235 5230 5225 5221 5216 5211 5207 5203 5198 5194 5190 5185 5181 5177
5598 5594 5591 5585 5581 5578 5574 5569 5563 5559 5557 5552 5543 5538 5533 5527 5522 5518 5512 5508 5503 5498 5494 5489 5484 5479 5474 5469 5465 5460 5456 5451 5447 5442 5437 5433 5428 5424 5420 5415 5410 5405 5401 5396 5391 5386 5381 5375 5370 5364 5359 5353 5347 5341 5336 5331 5325 5320 5314 5308 5302 5296 5290 5284 5277 5271 5265 5259 5253 5246 5240 5235 5230 5225 5221 5216 5211 5206 5201 5197 5193 5190 5185 5180 5176 5172
5591 5588 5584 5577 5573 5571 5568 5561 5554 5551 5550 5546 5538 5532 5527 5521 5516 5512 5507 5502 5497 5492 5487 5482 5477 5472 5467 5463 5458 5454 5449 5445 5441 5436 5432 5427 5423 5418 5414 5409 5404 5399 5395 5390 5385 5380 5375 5370 5364 5359 5353 5347 5342 5336 5331 5325 5320 5314 5308 5303 5297 5291 5286 5279 5272 5266 5260 5254 5248 5242 5236 5230 5225 5220 5215 5211 5207 5202 5197 5191 5186 5183 5180 5176 5171 5167
5586 5582 5576 5570 5565 5563 5560 5554 5547 5542 5540 5537 5532 5526 5520 5515 5510 5505 5500 5495 5490 5485 5480 5475 5471 5465 5461 5456 5452 5447 5443 5439 5434 5430 5426 5422 5417 5413 5408 5403 5398 5394 5389 5384 5379 5375 5370 5365 5359 5354 5348 5342 5337 5331 5326 5320 5314 5309 5303 5298 5292 5287 5281 5275 5269 5262 5255 5249 5243 5237 5231 5226 5220 5215 5210 5206 5202 5198 5194 5188 5181 5175 5172 5170 5166 5162